UAE65 EGLL-EGCC

Flight info

Callsign UAE65
Flight time 0h 34m
Altitude 18000
Route ULTIB T420 ELVOS
Aircraft A388/J-SADE2E3FGHIJ3J4J5M1RWXY/L

Departure

Time 2026-05-04 21:36
Airport London Heathrow Airport (EGLL)

Arrival

Time 2026-05-04 22:11
Airport Manchester Airport (EGCC)
Time Latitude Longitude Altitude Speed Heading
2026-05-04 21:11 51.46833 -0.45829 91 ft 0 kts 360°
2026-05-04 21:22 51.46821 -0.45828 95 ft 2 kts 356°
2026-05-04 21:23 51.46804 -0.45824 92 ft 2 kts 349°
2026-05-04 21:23 51.46789 -0.45815 92 ft 2 kts 339°
2026-05-04 21:23 51.46775 -0.45802 94 ft 2 kts 326°
2026-05-04 21:23 51.46763 -0.45784 96 ft 2 kts 312°
2026-05-04 21:24 51.46754 -0.45762 94 ft 2 kts 297°
2026-05-04 21:24 51.46749 -0.45737 94 ft 2 kts 284°
2026-05-04 21:24 51.46748 -0.45712 93 ft 1 kts 272°
2026-05-04 21:24 51.46748 -0.45708 92 ft 0 kts 270°
2026-05-04 21:28 51.46748 -0.45710 92 ft 2 kts 270°
2026-05-04 21:29 51.46748 -0.45767 94 ft 8 kts 270°
2026-05-04 21:29 51.46749 -0.45879 94 ft 9 kts 270°
2026-05-04 21:29 51.46749 -0.45976 94 ft 10 kts 270°
2026-05-04 21:29 51.46748 -0.46107 94 ft 12 kts 269°
2026-05-04 21:30 51.46748 -0.46265 95 ft 16 kts 270°
2026-05-04 21:30 51.46748 -0.46458 94 ft 18 kts 270°
2026-05-04 21:30 51.46748 -0.46649 95 ft 18 kts 269°
2026-05-04 21:30 51.46747 -0.46916 95 ft 16 kts 270°
2026-05-04 21:31 51.46746 -0.47226 95 ft 16 kts 270°
2026-05-04 21:31 51.46746 -0.47390 95 ft 16 kts 270°
2026-05-04 21:31 51.46745 -0.47561 94 ft 14 kts 269°
2026-05-04 21:32 51.46744 -0.47741 91 ft 17 kts 270°
2026-05-04 21:32 51.46744 -0.47929 91 ft 12 kts 269°
2026-05-04 21:32 51.46743 -0.48028 91 ft 8 kts 269°
2026-05-04 21:32 51.46743 -0.48051 92 ft 0 kts 269°
2026-05-04 21:33 51.46743 -0.48086 91 ft 6 kts 270°
2026-05-04 21:33 51.46743 -0.48188 91 ft 12 kts 269°
2026-05-04 21:33 51.46742 -0.48305 91 ft 10 kts 270°
2026-05-04 21:34 51.46742 -0.48443 91 ft 15 kts 270°
2026-05-04 21:34 51.46742 -0.48621 91 ft 16 kts 270°
2026-05-04 21:34 51.46706 -0.48740 96 ft 11 kts 190°
2026-05-04 21:34 51.46635 -0.48755 93 ft 8 kts 194°
2026-05-04 21:35 51.46617 -0.48762 95 ft 5 kts 194°
2026-05-04 21:35 51.46537 -0.48781 94 ft 16 kts 170°
2026-05-04 21:35 51.46478 -0.48684 95 ft 10 kts 93°
2026-05-04 21:35 51.46478 -0.48427 93 ft 59 kts 89°
2026-05-04 21:36 51.46484 -0.47330 96 ft 132 kts 89°
2026-05-04 21:36 51.46486 -0.45646 307 ft 158 kts 87°
2026-05-04 21:36 51.46496 -0.43894 975 ft 156 kts 87°
2026-05-04 21:36 51.46516 -0.42176 1668 ft 152 kts 85°
2026-05-04 21:37 51.46810 -0.40574 2221 ft 152 kts 58°
2026-05-04 21:37 51.47446 -0.39183 2837 ft 157 kts 52°
2026-05-04 21:37 51.48138 -0.37844 3499 ft 163 kts 50°
2026-05-04 21:37 51.48906 -0.36379 3897 ft 181 kts 50°
2026-05-04 21:38 51.49768 -0.34742 4179 ft 205 kts 49°
2026-05-04 21:38 51.50734 -0.32907 4709 ft 225 kts 49°
2026-05-04 21:38 51.51708 -0.30846 5471 ft 236 kts 57°
2026-05-04 21:38 51.52467 -0.28465 5965 ft 242 kts 66°
2026-05-04 21:39 51.53103 -0.25943 5994 ft 244 kts 68°
2026-05-04 21:39 51.53693 -0.23402 5994 ft 242 kts 69°
2026-05-04 21:39 51.54257 -0.20853 5994 ft 241 kts 69°
2026-05-04 21:39 51.55105 -0.18566 6012 ft 240 kts 42°
2026-05-04 21:40 51.56542 -0.17263 6011 ft 238 kts 12°
2026-05-04 21:40 51.58174 -0.17314 6015 ft 236 kts 341°
2026-05-04 21:40 51.59545 -0.18684 6017 ft 233 kts 311°
2026-05-04 21:40 51.60526 -0.20732 5992 ft 231 kts 306°
2026-05-04 21:41 51.61556 -0.22739 6010 ft 240 kts 313°
2026-05-04 21:41 51.62861 -0.24640 5994 ft 261 kts 321°
2026-05-04 21:41 51.64361 -0.26336 6030 ft 265 kts 326°
2026-05-04 21:41 51.65944 -0.27905 6251 ft 269 kts 328°
2026-05-04 21:42 51.67573 -0.29451 7007 ft 272 kts 328°
2026-05-04 21:42 51.69177 -0.30968 7961 ft 274 kts 328°
2026-05-04 21:42 51.70835 -0.32550 8827 ft 279 kts 328°
2026-05-04 21:42 51.72517 -0.34163 9743 ft 283 kts 327°
2026-05-04 21:43 51.74226 -0.35810 10542 ft 288 kts 328°
2026-05-04 21:43 51.75961 -0.37486 11357 ft 292 kts 328°
2026-05-04 21:43 51.77718 -0.39187 12134 ft 297 kts 329°
2026-05-04 21:43 51.79505 -0.40917 12921 ft 302 kts 329°
2026-05-04 21:44 51.81317 -0.42671 13720 ft 304 kts 329°
2026-05-04 21:44 51.83138 -0.44434 14480 ft 307 kts 328°
2026-05-04 21:44 51.84982 -0.46222 15119 ft 311 kts 328°
2026-05-04 21:44 51.86850 -0.48037 15756 ft 316 kts 328°
2026-05-04 21:45 51.88746 -0.49881 16406 ft 319 kts 328°
2026-05-04 21:45 51.90659 -0.51745 17077 ft 323 kts 327°
2026-05-04 21:45 51.92594 -0.53631 17731 ft 327 kts 327°
2026-05-04 21:45 51.94563 -0.55552 18023 ft 332 kts 327°
2026-05-04 21:46 51.96544 -0.57486 18051 ft 332 kts 327°
2026-05-04 21:46 51.98514 -0.59410 18050 ft 330 kts 327°
2026-05-04 21:46 52.00477 -0.61330 18050 ft 329 kts 327°
2026-05-04 21:46 52.02483 -0.63297 18049 ft 348 kts 327°
2026-05-04 21:47 52.04621 -0.65397 18056 ft 370 kts 327°
2026-05-04 21:47 52.06888 -0.67623 18053 ft 391 kts 327°
2026-05-04 21:47 52.09264 -0.69958 18048 ft 404 kts 327°
2026-05-04 21:47 52.11675 -0.72328 18047 ft 405 kts 327°
2026-05-04 21:48 52.14083 -0.74697 18048 ft 404 kts 327°
2026-05-04 21:48 52.16461 -0.77041 18051 ft 404 kts 327°
2026-05-04 21:48 52.18897 -0.79448 18048 ft 404 kts 327°
2026-05-04 21:48 52.21267 -0.81793 18047 ft 404 kts 327°
2026-05-04 21:49 52.23673 -0.84176 18052 ft 404 kts 327°
2026-05-04 21:49 52.26075 -0.86559 18047 ft 404 kts 327°
2026-05-04 21:49 52.28483 -0.88948 18056 ft 404 kts 327°
2026-05-04 21:49 52.30876 -0.91323 18047 ft 402 kts 327°
2026-05-04 21:50 52.33263 -0.93698 18050 ft 402 kts 326°
2026-05-04 21:50 52.35652 -0.96080 18051 ft 402 kts 326°
2026-05-04 21:50 52.38040 -0.98463 18050 ft 402 kts 326°
2026-05-04 21:50 52.40423 -1.00845 18048 ft 402 kts 327°
2026-05-04 21:51 52.42811 -1.03233 18048 ft 402 kts 327°
2026-05-04 21:51 52.45203 -1.05628 18054 ft 402 kts 327°
2026-05-04 21:51 52.47588 -1.08018 18048 ft 402 kts 327°
2026-05-04 21:51 52.49969 -1.10409 18054 ft 402 kts 327°
2026-05-04 21:52 52.52325 -1.12781 18063 ft 401 kts 327°
2026-05-04 21:52 52.54697 -1.15173 18047 ft 400 kts 327°
2026-05-04 21:52 52.57065 -1.17564 18048 ft 396 kts 327°
2026-05-04 21:52 52.59368 -1.19886 17930 ft 381 kts 326°
2026-05-04 21:53 52.61599 -1.22138 17612 ft 372 kts 326°
2026-05-04 21:53 52.63793 -1.24358 17294 ft 369 kts 326°
2026-05-04 21:53 52.65979 -1.26574 16976 ft 368 kts 326°
2026-05-04 21:53 52.68158 -1.28785 16655 ft 366 kts 326°
2026-05-04 21:54 52.70312 -1.30973 16162 ft 362 kts 327°
2026-05-04 21:54 52.72455 -1.33152 15605 ft 360 kts 327°
2026-05-04 21:54 52.74579 -1.35316 15086 ft 357 kts 327°
2026-05-04 21:54 52.76684 -1.37462 14570 ft 355 kts 327°
2026-05-04 21:55 52.78776 -1.39598 14019 ft 352 kts 327°
2026-05-04 21:55 52.80850 -1.41717 13455 ft 349 kts 327°
2026-05-04 21:55 52.82902 -1.43817 12900 ft 346 kts 327°
2026-05-04 21:55 52.84939 -1.45905 12341 ft 343 kts 327°
2026-05-04 21:56 52.86955 -1.47972 11796 ft 339 kts 327°
2026-05-04 21:56 52.88953 -1.50024 11254 ft 336 kts 327°
2026-05-04 21:56 52.90933 -1.52060 10713 ft 334 kts 327°
2026-05-04 21:56 52.92907 -1.54091 10239 ft 332 kts 327°
2026-05-04 21:57 52.94858 -1.56100 10094 ft 325 kts 327°
2026-05-04 21:57 52.96727 -1.58026 10064 ft 307 kts 327°
2026-05-04 21:57 52.98493 -1.59846 10057 ft 290 kts 327°
2026-05-04 21:57 53.00164 -1.61571 10033 ft 277 kts 327°
2026-05-04 21:58 53.01775 -1.63236 9811 ft 271 kts 327°
2026-05-04 21:58 53.03368 -1.64887 9429 ft 270 kts 327°
2026-05-04 21:58 53.04937 -1.66587 9029 ft 268 kts 322°
2026-05-04 21:58 53.06305 -1.68681 8686 ft 266 kts 311°
2026-05-04 21:59 53.07470 -1.71004 8330 ft 265 kts 309°
2026-05-04 21:59 53.08660 -1.73330 8100 ft 264 kts 310°
2026-05-04 21:59 53.09855 -1.75636 8054 ft 262 kts 310°
2026-05-04 21:59 53.11048 -1.77942 8056 ft 264 kts 310°
2026-05-04 22:00 53.12247 -1.80262 8059 ft 264 kts 310°
2026-05-04 22:00 53.13442 -1.82578 8058 ft 262 kts 310°
2026-05-04 22:00 53.14609 -1.84843 8064 ft 254 kts 310°
2026-05-04 22:00 53.15749 -1.87062 8064 ft 252 kts 310°
2026-05-04 22:01 53.16889 -1.89282 8066 ft 253 kts 310°
2026-05-04 22:01 53.18032 -1.91515 8065 ft 253 kts 310°
2026-05-04 22:01 53.19176 -1.93747 8053 ft 252 kts 310°
2026-05-04 22:01 53.20315 -1.95968 7915 ft 252 kts 310°
2026-05-04 22:02 53.21446 -1.98180 7742 ft 249 kts 310°
2026-05-04 22:02 53.22641 -2.00284 7330 ft 251 kts 324°
2026-05-04 22:02 53.24244 -2.01360 7051 ft 252 kts 352°
2026-05-04 22:02 53.25972 -2.00993 6763 ft 253 kts 21°
2026-05-04 22:03 53.27557 -1.99695 6444 ft 253 kts 25°
2026-05-04 22:03 53.29137 -1.98426 6158 ft 251 kts 24°
2026-05-04 22:03 53.30712 -1.97174 5838 ft 250 kts 24°
2026-05-04 22:03 53.32276 -1.95917 5545 ft 249 kts 24°
2026-05-04 22:04 53.33833 -1.94667 5274 ft 248 kts 24°
2026-05-04 22:04 53.35380 -1.93424 4991 ft 246 kts 24°
2026-05-04 22:04 53.36919 -1.92200 4682 ft 244 kts 20°
2026-05-04 22:04 53.38544 -1.91769 4359 ft 240 kts 352°
2026-05-04 22:05 53.40087 -1.92783 4072 ft 236 kts 322°
2026-05-04 22:05 53.41351 -1.94516 4005 ft 235 kts 320°
2026-05-04 22:05 53.42603 -1.96232 3884 ft 237 kts 320°
2026-05-04 22:05 53.43870 -1.97970 3739 ft 233 kts 320°
2026-05-04 22:06 53.45127 -1.99690 3464 ft 233 kts 320°
2026-05-04 22:06 53.46377 -2.01419 3120 ft 233 kts 316°
2026-05-04 22:06 53.47229 -2.03683 2987 ft 228 kts 284°
2026-05-04 22:06 53.47093 -2.06209 2991 ft 217 kts 244°
2026-05-04 22:07 53.46078 -2.07946 3007 ft 203 kts 216°
2026-05-04 22:07 53.44938 -2.09184 2967 ft 183 kts 215°
2026-05-04 22:07 53.43940 -2.10349 2736 ft 169 kts 221°
2026-05-04 22:07 53.43094 -2.11678 2498 ft 166 kts 230°
2026-05-04 22:08 53.42342 -2.13134 2275 ft 165 kts 233°
2026-05-04 22:08 53.41631 -2.14618 2059 ft 158 kts 234°
2026-05-04 22:08 53.40957 -2.15993 1846 ft 150 kts 235°
2026-05-04 22:08 53.40308 -2.17345 1635 ft 148 kts 234°
2026-05-04 22:09 53.39660 -2.18669 1426 ft 146 kts 234°
2026-05-04 22:09 53.39020 -2.19997 1226 ft 146 kts 234°
2026-05-04 22:09 53.38383 -2.21304 1021 ft 144 kts 233°
2026-05-04 22:09 53.37759 -2.22595 813 ft 142 kts 232°
2026-05-04 22:10 53.37139 -2.23872 635 ft 140 kts 232°
2026-05-04 22:10 53.36522 -2.25130 402 ft 140 kts 231°
2026-05-04 22:10 53.35918 -2.26367 290 ft 138 kts 232°
2026-05-04 22:10 53.35397 -2.27449 248 ft 96 kts 231°
2026-05-04 22:11 53.35101 -2.28061 238 ft 42 kts 231°
2026-05-04 22:11 53.34980 -2.28376 237 ft 28 kts 251°
2026-05-04 22:11 53.34949 -2.28591 237 ft 8 kts 260°
2026-05-04 22:11 53.34946 -2.28618 234 ft 6 kts 261°
2026-05-04 22:12 53.34961 -2.28728 236 ft 11 kts 321°
2026-05-04 22:12 53.35028 -2.28711 238 ft 12 kts 40°
2026-05-04 22:12 53.35085 -2.28601 237 ft 12 kts 51°
2026-05-04 22:12 53.35151 -2.28464 236 ft 16 kts 51°
2026-05-04 22:13 53.35201 -2.28361 239 ft 0 kts 50°
2026-05-04 22:13 53.35206 -2.28350 236 ft 4 kts 50°
2026-05-04 22:13 53.35243 -2.28276 237 ft 11 kts 50°
2026-05-04 22:13 53.35307 -2.28162 239 ft 12 kts 45°
2026-05-04 22:14 53.35370 -2.28058 241 ft 14 kts 44°
2026-05-04 22:14 53.35454 -2.27939 243 ft 16 kts 24°
2026-05-04 22:14 53.35569 -2.27904 243 ft 18 kts
2026-05-04 22:14 53.35687 -2.27884 249 ft 14 kts
2026-05-04 22:15 53.35787 -2.27867 254 ft 14 kts
2026-05-04 22:15 53.35886 -2.27851 260 ft 14 kts
2026-05-04 22:15 53.35962 -2.27867 260 ft 12 kts 335°
2026-05-04 22:15 53.36032 -2.27959 260 ft 15 kts 318°
2026-05-04 22:16 53.36115 -2.28085 260 ft 17 kts 316°
2026-05-04 22:16 53.36197 -2.28222 260 ft 17 kts 314°
2026-05-04 22:16 53.36271 -2.28349 260 ft 15 kts 314°
2026-05-04 22:16 53.36355 -2.28468 260 ft 15 kts 341°
2026-05-04 22:17 53.36411 -2.28428 260 ft 10 kts 44°
2026-05-04 22:17 53.36448 -2.28392 260 ft 8 kts 354°
2026-05-04 22:17 53.36479 -2.28422 260 ft 4 kts 319°
2026-05-04 22:17 53.36502 -2.28457 260 ft 4 kts 316°
2026-05-04 22:18 53.36507 -2.28464 260 ft 0 kts 316°